TimeCDT,TemperatureF,Dew PointF,Humidity,Sea Level PressureIn,VisibilityMPH,Wind Direction,Wind SpeedMPH,Gust SpeedMPH,PrecipitationIn,Events,Conditions,WindDirDegrees,DateUTC
12:15 AM,53.6,50.0,88,29.74,8.0,SSE,11.5,16.1,0.07,,Mostly Cloudy,160,2013-03-10 06:15:00
12:35 AM,55.4,50.0,82,29.74,9.0,SSE,8.1,-,0.10,,Overcast,160,2013-03-10 06:35:00
12:55 AM,55.4,50.0,82,29.75,8.0,South,9.2,-,0.11,,Overcast,170,2013-03-10 06:55:00
1:15 AM,55.4,51.8,88,29.74,8.0,SSE,9.2,17.3,0.01,,Mostly Cloudy,160,2013-03-10 07:15:00
1:35 AM,55.4,51.8,88,29.73,7.0,SSE,6.9,-,0.04,,Overcast,160,2013-03-10 07:35:00
1:55 AM,55.4,51.8,88,29.68,7.0,SSE,9.2,-,0.05,,Overcast,150,2013-03-10 07:55:00
3:15 AM,55.4,51.8,88,29.68,9.0,South,10.4,-,N/A,,Overcast,170,2013-03-10 08:15:00
3:35 AM,55.4,51.8,88,29.69,10.0,South,9.2,-,N/A,,Overcast,180,2013-03-10 08:35:00
3:55 AM,55.4,51.8,88,29.68,10.0,South,11.5,16.1,N/A,,Overcast,180,2013-03-10 08:55:00
4:15 AM,55.4,51.8,88,29.66,10.0,South,9.2,-,N/A,,Overcast,170,2013-03-10 09:15:00
4:35 AM,57.2,51.8,82,29.65,10.0,SSW,6.9,-,N/A,,Overcast,210,2013-03-10 09:35:00
4:55 AM,55.4,51.8,88,29.65,10.0,South,6.9,-,N/A,,Mostly Cloudy,180,2013-03-10 09:55:00
5:15 AM,55.4,51.8,88,29.67,10.0,SSW,10.4,-,N/A,,Overcast,200,2013-03-10 10:15:00
5:35 AM,57.2,51.8,82,29.71,10.0,SSW,15.0,18.4,N/A,,Overcast,200,2013-03-10 10:35:00
5:55 AM,57.2,51.8,82,29.71,10.0,South,12.7,17.3,N/A,,Overcast,170,2013-03-10 10:55:00
6:15 AM,57.2,51.8,82,29.73,10.0,SSW,8.1,-,N/A,,Overcast,200,2013-03-10 11:15:00
7:55 AM,53.6,48.2,82,29.78,10.0,WSW,12.7,17.3,0.05,,Overcast,250,2013-03-10 12:55:00
8:15 AM,51.8,46.4,82,29.77,10.0,West,10.4,19.6,0.06,,Overcast,270,2013-03-10 13:15:00
8:35 AM,51.8,46.4,82,29.75,10.0,NW,3.5,-,0.12,,Overcast,310,2013-03-10 13:35:00
8:55 AM,51.8,46.4,82,29.75,10.0,NW,4.6,-,0.17,,Overcast,310,2013-03-10 13:55:00
9:15 AM,50.0,46.4,87,29.73,9.0,Calm,Calm,-,0.02,,Overcast,0,2013-03-10 14:15:00
9:35 AM,50.0,46.4,87,29.77,10.0,WSW,5.8,-,0.08,,Overcast,250,2013-03-10 14:35:00
9:55 AM,48.2,46.4,93,29.79,10.0,SW,3.5,-,0.13,,Overcast,230,2013-03-10 14:55:00
10:15 AM,48.2,46.4,93,29.76,5.0,Calm,Calm,-,0.07,,Overcast,0,2013-03-10 15:15:00
10:35 AM,48.2,46.4,93,29.73,4.0,Calm,Calm,-,0.13,,Overcast,0,2013-03-10 15:35:00
10:55 AM,48.2,46.4,93,29.76,6.0,South,3.5,-,0.19,,Overcast,170,2013-03-10 15:55:00
11:15 AM,48.2,46.4,93,29.75,7.0,SSE,5.8,-,0.06,,Overcast,160,2013-03-10 16:15:00
11:35 AM,48.2,46.4,93,29.75,9.0,SE,5.8,-,0.11,,Overcast,140,2013-03-10 16:35:00
11:55 AM,48.2,46.4,93,29.72,8.0,ESE,10.4,-,0.16,,Overcast,120,2013-03-10 16:55:00
12:15 PM,48.2,46.4,93,29.70,10.0,SSE,8.1,-,0.02,,Overcast,160,2013-03-10 17:15:00
12:35 PM,48.2,46.4,93,29.68,10.0,SE,8.1,-,0.04,,Overcast,140,2013-03-10 17:35:00
12:55 PM,48.2,44.6,87,29.71,10.0,SSW,10.4,-,0.04,,Overcast,210,2013-03-10 17:55:00
1:15 PM,48.2,44.6,87,29.67,10.0,SE,4.6,-,N/A,,Overcast,130,2013-03-10 18:15:00
1:35 PM,48.2,44.6,87,29.68,10.0,South,4.6,-,N/A,,Overcast,190,2013-03-10 18:35:00
1:55 PM,48.2,46.4,93,29.68,10.0,South,5.8,-,N/A,,Overcast,190,2013-03-10 18:55:00
2:15 PM,50.0,46.4,87,29.67,10.0,South,5.8,-,N/A,,Overcast,180,2013-03-10 19:15:00
2:35 PM,51.8,46.4,82,29.67,10.0,South,8.1,-,N/A,,Overcast,190,2013-03-10 19:35:00
2:55 PM,53.6,46.4,77,29.67,10.0,SSW,11.5,16.1,N/A,,Overcast,200,2013-03-10 19:55:00
3:15 PM,55.4,46.4,72,29.66,10.0,South,10.4,16.1,N/A,,Mostly Cloudy,190,2013-03-10 20:15:00
3:35 PM,55.4,46.4,72,29.65,10.0,SSW,12.7,-,N/A,,Mostly Cloudy,200,2013-03-10 20:35:00
3:55 PM,57.2,44.6,63,29.65,10.0,SSW,8.1,-,N/A,,Mostly Cloudy,200,2013-03-10 20:55:00
4:15 PM,57.2,44.6,63,29.65,10.0,SSW,15.0,18.4,N/A,,Scattered Clouds,210,2013-03-10 21:15:00
4:35 PM,57.2,42.8,59,29.66,10.0,West,18.4,32.2,N/A,,Mostly Cloudy,270,2013-03-10 21:35:00
4:55 PM,50.0,44.6,82,29.68,7.0,WSW,10.4,17.3,0.02,,Overcast,250,2013-03-10 21:55:00
5:15 PM,50.0,44.6,82,29.69,10.0,West,11.5,16.1,0.02,,Overcast,260,2013-03-10 22:15:00
5:35 PM,48.2,44.6,87,29.70,7.0,West,11.5,19.6,0.03,,Overcast,270,2013-03-10 22:35:00
5:55 PM,48.2,42.8,82,29.71,10.0,West,13.8,24.2,0.03,,Overcast,260,2013-03-10 22:55:00
6:15 PM,46.4,41.0,81,29.72,10.0,West,11.5,17.3,N/A,,Overcast,260,2013-03-10 23:15:00
6:35 PM,46.4,39.2,76,29.73,10.0,WSW,16.1,20.7,N/A,,Overcast,250,2013-03-10 23:35:00
6:55 PM,46.4,39.2,76,29.74,10.0,West,10.4,17.3,N/A,,Overcast,260,2013-03-10 23:55:00
7:15 PM,44.6,37.4,76,29.75,10.0,West,12.7,19.6,N/A,,Overcast,270,2013-03-11 00:15:00
7:35 PM,44.6,37.4,76,29.77,10.0,WNW,11.5,18.4,N/A,,Overcast,300,2013-03-11 00:35:00
7:55 PM,42.8,35.6,76,29.78,10.0,West,10.4,21.9,N/A,,Overcast,280,2013-03-11 00:55:00
8:15 PM,41.0,35.6,81,29.79,10.0,WNW,10.4,19.6,N/A,,Overcast,290,2013-03-11 01:15:00
8:35 PM,41.0,35.6,81,29.80,10.0,West,11.5,16.1,N/A,,Overcast,280,2013-03-11 01:35:00
8:55 PM,39.2,35.6,87,29.80,10.0,West,12.7,17.3,N/A,,Overcast,270,2013-03-11 01:55:00
9:15 PM,37.4,33.8,87,29.81,8.0,WSW,15.0,19.6,N/A,,Overcast,250,2013-03-11 02:15:00
9:35 PM,37.4,33.8,87,29.82,8.0,West,11.5,17.3,N/A,,Overcast,270,2013-03-11 02:35:00
9:55 PM,37.4,32.0,81,29.83,10.0,West,13.8,23.0,N/A,,Overcast,280,2013-03-11 02:55:00
10:15 PM,35.6,32.0,87,29.84,10.0,West,10.4,18.4,N/A,,Overcast,270,2013-03-11 03:15:00
10:35 PM,35.6,30.2,81,29.84,9.0,West,13.8,20.7,N/A,,Overcast,270,2013-03-11 03:35:00
10:55 PM,35.6,30.2,81,29.85,8.0,West,15.0,18.4,N/A,,Overcast,270,2013-03-11 03:55:00
11:15 PM,35.6,30.2,81,29.86,8.0,West,13.8,19.6,N/A,,Overcast,280,2013-03-11 04:15:00
11:35 PM,33.8,30.2,87,29.86,7.0,West,12.7,21.9,N/A,,Overcast,270,2013-03-11 04:35:00
12:15 AM,33.8,28.4,81,29.84,10.0,West,15.0,20.7,N/A,,Overcast,270,2013-03-11 05:15:00
12:35 AM,33.8,28.4,81,29.84,9.0,WNW,6.9,-,N/A,,Overcast,290,2013-03-11 05:35:00